Jonestown, MS

8:31 AM CST on February 12, 2016 (GMT -0600)
Fletcher

Weather History for KCKM - December, 2013

Change the Weather History Date:

Sunday, December 22, 2013

  Actual Average (KMEM) Record (KMEM)
Temperature  
Mean Temperature 42 °F 42 °F  
Max Temperature 48 °F 51 °F 70 °F (1982)
Min Temperature 37 °F 34 °F -4 °F (1989)
Degree Days  
Heating Degree Days 22 23  
Month to date heating degree days 456  
Since 1 July heating degree days 955  
Cooling Degree Days 0 0  
Month to date cooling degree days 0  
Year to date cooling degree days 2256  
Moisture  
Dew Point 39 °F    
Average Humidity 87    
Maximum Humidity 100    
Minimum Humidity 75    
Precipitation  
Precipitation 0.00 in 0.19 in 1.67 in (2004)
Month to date precipitation 4.23  
Year to date precipitation 52.17  
Snow  
Snow 0.00 in 0.10 in 14.30 in (1963)
Month to date snowfall 0.1  
Since 1 July snowfall 0.1  
Snow Depth -    
Sea Level Pressure  
Sea Level Pressure 30.15 in    
Wind  
Wind Speed 0 mph (North)    
Max Wind Speed 0 mph    
Max Gust Speed -    
Visibility 9 miles    
Events      
T = Trace of Precipitation, MM = Missing Value Source: NWS Daily Summary

Daily Weather History Graph

Daily Weather History Graph

Search for Another Location

Airport or City:

Trip Planner

Search our weather history database for the weather conditions in past years. The results will help you decide how hot, cold, wet, or windy it might be!

Date:

Astronomy

Dec. 22, 2013 Rise Set
Actual Time 7:04 AM CST 4:56 PM CST
Civil Twilight 6:37 AM CST 5:24 PM CST
Nautical Twilight 6:05 AM CST 5:56 PM CST
Astronomical Twilight 5:34 AM CST 6:26 PM CST
Moon 9:57 PM CST (12/22) 10:12 AM CST (12/22)
Length of Visible Light 10h 47m
Length of Day
9h 51m
Waning Gibbous, 76% of the Moon is Illuminated
Dec 22
Waning Gibbous
Dec 25
Last Quarter
Jan 1
New
Jan 7
First Quarter
Jan 15
Full

Hourly Weather History & Observations

Time (CST) Temp. Dew Point Humidity Pressure Visibility Wind Dir Wind Speed Gust Speed Precip Events Conditions
2:35 PM 48.2 °F 46.4 °F 93% 30.03 in 9.0 mi Calm Calm - N/A   Unknown
2:55 PM 46.4 °F 44.6 °F 93% 30.02 in 10.0 mi Calm Calm - N/A   Overcast
3:15 PM 46.4 °F 44.6 °F 93% 30.02 in - Calm Calm - N/A   Overcast
3:35 PM 46.4 °F 41.0 °F 81% 30.01 in - Calm Calm - N/A   Overcast
3:55 PM 46.4 °F 41.0 °F 81% 30.04 in 10.0 mi Calm Calm - N/A   Overcast
4:15 PM 44.6 °F 41.0 °F 87% 30.05 in 10.0 mi Calm Calm - N/A   Overcast
4:35 PM 44.6 °F 41.0 °F 87% 30.07 in 10.0 mi Calm Calm - N/A   Overcast
4:55 PM 42.8 °F 42.8 °F 100% 30.08 in 4.0 mi Calm Calm - N/A   Overcast
5:15 PM 42.8 °F 41.0 °F 93% 30.09 in 9.0 mi Calm Calm - N/A   Overcast
5:35 PM 44.6 °F 41.0 °F 87% 30.10 in 10.0 mi Calm Calm - N/A   Overcast
5:55 PM 44.6 °F 41.0 °F 87% 30.11 in 10.0 mi Calm Calm - N/A   Overcast
6:15 PM 44.6 °F 42.8 °F 93% 30.13 in 7.0 mi Calm Calm - N/A   Overcast
6:35 PM 42.8 °F 41.0 °F 93% 30.14 in 3.0 mi Calm Calm - N/A   Overcast
6:55 PM 42.8 °F 41.0 °F 93% 30.14 in 10.0 mi Calm Calm - N/A   Overcast
7:15 PM 42.8 °F 39.2 °F 87% 30.15 in 10.0 mi Calm Calm - N/A   Overcast
7:35 PM 41.0 °F 39.2 °F 93% 30.16 in 10.0 mi Calm Calm - N/A   Overcast
7:55 PM 41.0 °F 39.2 °F 93% 30.17 in 10.0 mi Calm Calm - N/A   Overcast
8:15 PM 41.0 °F 39.2 °F 93% 30.18 in 7.0 mi Calm Calm - N/A   Overcast
8:35 PM 41.0 °F 39.2 °F 93% 30.19 in 4.0 mi Calm Calm - N/A   Overcast
8:55 PM 41.0 °F 37.4 °F 87% 30.20 in 10.0 mi Calm Calm - N/A   Overcast
9:15 PM 41.0 °F 37.4 °F 87% 30.20 in 10.0 mi Calm Calm - N/A   Overcast
9:35 PM 41.0 °F 35.6 °F 81% 30.22 in 10.0 mi Calm Calm - N/A   Overcast
9:55 PM 41.0 °F 35.6 °F 81% 30.23 in 10.0 mi Calm Calm - N/A   Overcast
10:15 PM 39.2 °F 35.6 °F 87% 30.24 in 10.0 mi Calm Calm - N/A   Overcast
10:35 PM 39.2 °F 32.0 °F 75% 30.25 in 10.0 mi Calm Calm - N/A   Overcast
10:55 PM 39.2 °F 32.0 °F 75% 30.26 in 10.0 mi Calm Calm - N/A   Overcast
11:15 PM 37.4 °F 32.0 °F 81% 30.28 in 10.0 mi Calm Calm - N/A   Overcast
11:35 PM 37.4 °F 32.0 °F 81% 30.28 in 10.0 mi Calm Calm - N/A   Overcast
11:55 PM 37.4 °F 32.0 °F 81% 30.29 in 10.0 mi Calm Calm - N/A   Overcast